Location: Chmeln�
(49.6483°N, 14.9871°E)
Time: 08:43:39
(UTC+00:00)

CENTAUR R/B - Pass Details

Date: 18 September 2020
Orbit: 755 x 1433 km, 63.4° (Epoch: 02 October)

Event Time Altitude Azimuth Distance (km) Brightness Sun altitude
Rises 17:33:11 0° 311° (NW) 3,960 6.8 -5.2°
Reaches altitude 10° 17:35:57 10° 318° (NW) 3,097 6.0 -5.6°
Maximum altitude 17:43:06 42° 28° (NNE) 1,786 3.8 -6.8°
Drops below altitude 10° 17:51:07 10° 97° (E) 3,479 4.7 -8.1°
Enters shadow 17:51:21 - 98° (E) 3,551 4.7 -8.1°
